When you browse on this site, cookies collect data to enhance your experience and personalize the content and advertising you see.
Visit our Privacy Policy to learn more. By continuing to use the site, you agree to this use of cookies and data.
  • In Sweden
  • List of Countries
  • For 7 days
  • Water Temperature
  • Satellite Maps
  • Weather Map
  • Weather Widgets
  • user-avatar
    Login

    Hourly Weather Stockholm

    Today, 27 June, Thursday

    Time Temperature Precipitation Wind Pressure Humidity
    00:00 +15°C° 0.1 mm 2 mps 759 mmHg 96%
    01:00 +14°C° 0.1 mm 2 mps 759 mmHg 96%
    02:00 +13°C° 0 mm 3 mps 759 mmHg 93%
    03:00 +12°C° 0 mm 4 mps 759 mmHg 90%
    04:00 +12°C° 0 mm 5 mps 759 mmHg 87%
    05:00 +12°C° 0 mm 5 mps 760 mmHg 81%
    06:00 +13°C° 0 mm 5 mps 760 mmHg 75%
    07:00 +13°C° 0 mm 5 mps 760 mmHg 69%
    08:00 +15°C° 0 mm 5 mps 760 mmHg 62%
    09:00 +16°C° 0 mm 5 mps 761 mmHg 55%
    10:00 +19°C° 0 mm 5 mps 761 mmHg 49%
    11:00 +19°C° 0 mm 5 mps 761 mmHg 48%
    12:00 +19°C° 0 mm 5 mps 761 mmHg 46%
    13:00 +20°C° 0 mm 4 mps 762 mmHg 45%
    14:00 +19°C° 0 mm 4 mps 762 mmHg 48%
    15:00 +19°C° 0 mm 4 mps 762 mmHg 50%
    16:00 +18°C° 0 mm 4 mps 761 mmHg 52%
    17:00 +18°C° 0 mm 4 mps 762 mmHg 52%
    18:00 +18°C° 0 mm 3 mps 762 mmHg 51%
    19:00 +18°C° 0 mm 3 mps 762 mmHg 50%
    20:00 +17°C° 0 mm 3 mps 762 mmHg 54%
    21:00 +14°C° 0 mm 3 mps 762 mmHg 58%
    22:00 +13°C° 0 mm 3 mps 763 mmHg 62%
    23:00 +12°C° 0 mm 4 mps 763 mmHg 61%

    Tomorrow, 28 June, Friday

    Time Temperature Precipitation Wind Pressure Humidity
    00:00 +12°C° 0 mm 4 mps 763 mmHg 61%
    01:00 +11°C° 0 mm 4 mps 763 mmHg 60%
    02:00 +10°C° 0 mm 5 mps 764 mmHg 61%
    03:00 +10°C° 0 mm 5 mps 764 mmHg 62%
    04:00 +9°C° 0 mm 5 mps 764 mmHg 63%
    05:00 +10°C° 0 mm 5 mps 764 mmHg 61%
    06:00 +12°C° 0 mm 4 mps 764 mmHg 58%
    07:00 +13°C° 0 mm 4 mps 764 mmHg 55%
    08:00 +14°C° 0 mm 4 mps 764 mmHg 52%
    09:00 +15°C° 0 mm 4 mps 764 mmHg 48%
    10:00 +17°C° 0 mm 4 mps 764 mmHg 44%
    11:00 +18°C° 0 mm 4 mps 764 mmHg 42%
    12:00 +19°C° 0 mm 4 mps 764 mmHg 41%
    13:00 +21°C° 0 mm 4 mps 763 mmHg 39%
    14:00 +21°C° 0 mm 4 mps 763 mmHg 40%
    15:00 +21°C° 0 mm 4 mps 763 mmHg 42%
    16:00 +21°C° 0 mm 4 mps 763 mmHg 44%
    17:00 +20°C° 0 mm 3 mps 763 mmHg 48%
    18:00 +19°C° 0 mm 3 mps 762 mmHg 52%
    19:00 +18°C° 0 mm 2 mps 762 mmHg 56%
    20:00 +18°C° 0 mm 2 mps 762 mmHg 58%
    21:00 +17°C° 0 mm 2 mps 762 mmHg 59%
    22:00 +17°C° 0 mm 2 mps 762 mmHg 60%
    23:00 +16°C° 0 mm 2 mps 761 mmHg 65%

    Day after tomorrow, 29 June, Saturday

    Time Temperature Precipitation Wind Pressure Humidity
    00:00 +16°C° 0 mm 1 mps 761 mmHg 69%
    01:00 +15°C° 0 mm 1 mps 761 mmHg 74%
    02:00 +15°C° 0.1 mm 1 mps 761 mmHg 76%
    03:00 +15°C° 0.1 mm 2 mps 761 mmHg 78%
    04:00 +15°C° 0.1 mm 2 mps 761 mmHg 81%
    05:00 +16°C° 0 mm 2 mps 760 mmHg 76%
    06:00 +17°C° 0 mm 2 mps 760 mmHg 71%
    07:00 +19°C° 0 mm 2 mps 760 mmHg 67%
    08:00 +20°C° 0 mm 2 mps 760 mmHg 61%
    09:00 +23°C° 0 mm 2 mps 760 mmHg 55%
    10:00 +24°C° 0 mm 2 mps 760 mmHg 49%
    11:00 +25°C° 0 mm 2 mps 759 mmHg 47%
    12:00 +25°C° 0 mm 2 mps 759 mmHg 45%
    13:00 +26°C° 0 mm 2 mps 759 mmHg 43%
    14:00 +25°C° 0 mm 3 mps 759 mmHg 44%
    15:00 +25°C° 0 mm 3 mps 759 mmHg 44%
    16:00 +25°C° 0 mm 3 mps 758 mmHg 45%
    17:00 +24°C° 0 mm 3 mps 758 mmHg 49%
    18:00 +24°C° 0 mm 3 mps 758 mmHg 54%
    19:00 +22°C° 0 mm 3 mps 758 mmHg 59%
    20:00 +20°C° 0 mm 2 mps 758 mmHg 65%
    21:00 +19°C° 0 mm 2 mps 758 mmHg 71%
    22:00 +18°C° 0 mm 1 mps 758 mmHg 77%
    23:00 +17°C° 0 mm 2 mps 758 mmHg 76%

    30 June, Sunday

    Time Temperature Precipitation Wind Pressure Humidity
    00:00 +16°C° 0 mm 2 mps 758 mmHg 76%
    01:00 +16°C° 0 mm 2 mps 757 mmHg 75%
    02:00 +17°C° 0 mm 2 mps 757 mmHg 76%
    03:00 +17°C° 0 mm 3 mps 757 mmHg 77%
    04:00 +17°C° 0 mm 3 mps 756 mmHg 79%
    05:00 +18°C° 0 mm 3 mps 756 mmHg 75%
    06:00 +19°C° 0 mm 3 mps 755 mmHg 71%
    07:00 +20°C° 0 mm 2 mps 755 mmHg 67%
    08:00 +22°C° 0 mm 3 mps 755 mmHg 60%
    09:00 +24°C° 0 mm 3 mps 754 mmHg 54%
    10:00 +25°C° 0 mm 3 mps 754 mmHg 48%
    11:00 +27°C° 0 mm 4 mps 753 mmHg 43%
    12:00 +28°C° 0 mm 5 mps 752 mmHg 38%
    13:00 +29°C° 0 mm 6 mps 751 mmHg 33%
    14:00 +29°C° 0 mm 6 mps 751 mmHg 34%
    15:00 +29°C° 0 mm 6 mps 750 mmHg 36%
    16:00 +29°C° 0 mm 7 mps 749 mmHg 37%
    17:00 +28°C° 0 mm 6 mps 749 mmHg 40%
    18:00 +28°C° 0 mm 5 mps 749 mmHg 43%
    19:00 +27°C° 0 mm 5 mps 748 mmHg 46%
    20:00 +25°C° 0 mm 5 mps 748 mmHg 51%
    21:00 +22°C° 0 mm 5 mps 749 mmHg 56%
    22:00 +21°C° 0 mm 5 mps 749 mmHg 61%
    23:00 +20°C° 0 mm 5 mps 749 mmHg 64%

    1 July, Monday

    Time Temperature Precipitation Wind Pressure Humidity
    00:00 +17°C° 0 mm 5 mps 749 mmHg 68%
    01:00 +17°C° 0 mm 4 mps 749 mmHg 72%
    02:00 +17°C° 0 mm 4 mps 749 mmHg 74%
    03:00 +15°C° 0 mm 4 mps 749 mmHg 76%
    04:00 +15°C° 0 mm 4 mps 749 mmHg 78%
    05:00 +17°C° 0 mm 4 mps 749 mmHg 75%
    06:00 +18°C° 0 mm 4 mps 749 mmHg 72%
    07:00 +17°C° 0 mm 5 mps 749 mmHg 69%
    08:00 +19°C° 0 mm 5 mps 749 mmHg 65%
    09:00 +20°C° 0 mm 5 mps 749 mmHg 61%
    10:00 +20°C° 0 mm 6 mps 749 mmHg 57%
    11:00 +21°C° 0 mm 6 mps 749 mmHg 54%
    12:00 +22°C° 0 mm 6 mps 749 mmHg 50%
    13:00 +23°C° 0 mm 6 mps 749 mmHg 47%
    14:00 +23°C° 0.1 mm 6 mps 749 mmHg 46%
    15:00 +23°C° 0.1 mm 6 mps 749 mmHg 45%
    16:00 +23°C° 0.1 mm 6 mps 748 mmHg 44%
    17:00 +22°C° 0 mm 6 mps 748 mmHg 45%
    18:00 +21°C° 0 mm 6 mps 748 mmHg 47%
    19:00 +21°C° 0 mm 6 mps 748 mmHg 48%
    20:00 +19°C° 0 mm 5 mps 748 mmHg 54%
    21:00 +17°C° 0 mm 5 mps 749 mmHg 59%
    22:00 +15°C° 0 mm 5 mps 749 mmHg 65%
    23:00 +15°C° 0 mm 5 mps 749 mmHg 70%

    2 July, Tuesday

    Time Temperature Precipitation Wind Pressure Humidity
    00:00 +14°C° 0 mm 4 mps 749 mmHg 75%
    01:00 +13°C° 0 mm 4 mps 749 mmHg 80%
    02:00 +13°C° 0 mm 4 mps 749 mmHg 82%
    03:00 +13°C° 0 mm 4 mps 749 mmHg 84%
    04:00 +13°C° 0 mm 4 mps 749 mmHg 87%
    05:00 +14°C° 0 mm 3 mps 749 mmHg 84%
    06:00 +16°C° 0 mm 3 mps 750 mmHg 81%
    07:00 +17°C° 0 mm 3 mps 750 mmHg 78%
    08:00 +15°C° 0.2 mm 4 mps 750 mmHg 80%
    09:00 +14°C° 0.2 mm 5 mps 751 mmHg 83%
    10:00 +13°C° 0.2 mm 6 mps 751 mmHg 86%
    11:00 +13°C° 0.1 mm 6 mps 751 mmHg 79%
    12:00 +14°C° 0.1 mm 5 mps 752 mmHg 72%
    13:00 +14°C° 0.1 mm 5 mps 752 mmHg 65%
    14:00 +13°C° 0 mm 5 mps 752 mmHg 68%
    15:00 +12°C° 0 mm 5 mps 753 mmHg 72%
    16:00 +10°C° 0 mm 5 mps 753 mmHg 76%
    17:00 +10°C° 0 mm 5 mps 753 mmHg 73%
    18:00 +11°C° 0 mm 4 mps 754 mmHg 70%
    19:00 +11°C° 0 mm 4 mps 754 mmHg 67%
    20:00 +11°C° 0.1 mm 4 mps 754 mmHg 71%
    21:00 +11°C° 0.1 mm 4 mps 754 mmHg 76%
    22:00 +11°C° 0.1 mm 4 mps 755 mmHg 81%
    23:00 +10°C° 0 mm 4 mps 755 mmHg 80%
    Show more